Regional Weather Roundup
Issued by NWS

Home | Current Version | Previous Version | Text Only | Print | Product List | Glossary Off
Versions: 1 2 3 4 5 6 7 8 9 10 11 12 13 14 15 16 17 18 19 20 21 22 23 24 25 26 27 28 29 30 31 32 33 34 35 36 37 38 39 40 41 42 43 44 45 46 47 48 49 50

983
ASUS43 KFSD 201702
RWRSD

WEATHER ROUNDUP FOR SOUTH DAKOTA
NATIONAL WEATHER SERVICE SIOUX FALLS SD
1200 PM CDT SUN MAY 20 2018

NOTE: "FAIR" INDICATES FEW OR NO CLOUDS BELOW 12,000 FEET WITH NO
SIGNIFICANT WEATHER AND/OR OBSTRUCTIONS TO VISIBILITY.


SDZ001>005-009-010-012>017-201800-
NORTHWEST AND NORTH CENTRAL SOUTH DAKOTA

CITY           SKY/WX    TMP DP  RH WIND       PRES   REMARKS
BUFFALO          N/A     60  34  37 SE21      30.16F
FAITH            N/A     57  35  43 SE9       30.24F
MOBRIDGE       SUNNY     62  38  40 SE5       30.25S
$$

SDZ012>016-024>037-041>051-057-063-072>074-201800-
SOUTHWEST AND SOUTH CENTRAL SOUTH DAKOTA

CITY           SKY/WX    TMP DP  RH WIND       PRES   REMARKS
RAPID CTY ARPT SUNNY     56  36  47 S8        30.24F
PIERRE         SUNNY     61  38  42 N10       30.23F
CUSTER         SUNNY     47  29  49 CALM      30.24F
ELLSWORTH AFB  SUNNY     55  35  47 S8        30.23F
PHILIP         SUNNY     60  39  45 VRB5      30.24F
PINE RIDGE     PTSUNNY   56  35  45 E5        30.25S
SPEARFISH      FAIR      57  37  47 E13       30.21F
WINNER         FAIR      60  38  43 N15G21    30.22F
$$

SDZ004>011-016>023-039-040-201800-
NORTHEAST SOUTH DAKOTA

CITY           SKY/WX    TMP DP  RH WIND       PRES   REMARKS
ABERDEEN       MOSUNNY   65  31  28 NE12G25   30.26F
WATERTOWN      SUNNY     59  33  37 NE16G23   30.24S
BROOKINGS      CLOUDY    55  31  39 E15       30.23S
SISSETON         N/A     65  29  25 NE13      30.25F
$$

SDZ017-020-022-023-036>040-048>070-201800-
SOUTHEAST SOUTH DAKOTA

CITY           SKY/WX    TMP DP  RH WIND       PRES   REMARKS
SIOUX FALLS    CLOUDY    52  43  71 NE9       30.21F
HURON          SUNNY     62  35  36 E9        30.23F
CHAMBERLAIN    SUNNY     60  40  47 E10       30.24S
MITCHELL       CLOUDY    55  40  56 NE10      30.24S
YANKTON        CLOUDY    52  45  77 NE8       30.21S
$$

ABBREVIATIONS USED IN REMARKS
   TC - TEMPERATURE IN CELSIUS
  WCI - WIND CHILL INDEX
   HX - HEAT INDEX
  VSB - VISIBILITY





USA.gov is the U.S. government's official web portal to all federal, state and local government web resources and services.